Find Starlink 32523

NORAD ID: 62165 Int'l Des: 2024-225 Owner: SPXS Country: US Constellation: starlink operational
LEOCIRCULAR

リアルタイム位置

3D地球を読み込み中...

Starlink 32523について

説明を読み込み中...

次回通過

Passes for default location (London). Set your location on the main map for personalized predictions.

高度履歴

Loading altitude history...

軌道要素

1 62165U 24225C 26126.10741929 .00005062 00000-0 43166-3 0 9991
2 62165 70.0019 19.7622 0002998 267.1367 92.9449 14.98339560 78477
Epoch: May 6, 2026 • Age: 6 hours

現在のステータス

高度 581.9 km
速度 7.57 km/s
衛星直下点 -30.43°S, 9.96°E
打ち上げ日 Nov 30, 2024
運用期間 1.4 years
タイプ internet

技術仕様

分類 Payload
質量 730.00 kg
乾燥質量 700.00 kg
総質量 730.00 kg
長さ 0.30 m
直径 4.10 m
スパン 29.00 m
形状 Box + pan
製造者 SPXS
バスタイプ Starlink V2M
フェーズステータス In Orbit
所有者/国 SPXS/US

Most Searched